Time,TemperatureF,DewpointF,PressureIn,WindDirection,WindDirectionDegrees,WindSpeedMPH,WindSpeedGustMPH,Humidity,HourlyPrecipIn,Conditions,Clouds,dailyrainin,SoftwareType,DateUTC
2013-06-21 00:04:00,81.1,50.9,29.78,ESE,103,0.0,0.0,35,0.00,,,0.00,Wunderground v.1.15,2013-06-21 06:04:00,
2013-06-21 00:10:00,81.0,50.8,29.78,ESE,103,0.0,0.0,35,0.00,,,0.00,Wunderground v.1.15,2013-06-21 06:10:00,
2013-06-21 00:15:00,80.9,51.4,29.79,ESE,103,0.0,0.0,36,0.00,,,0.00,Wunderground v.1.15,2013-06-21 06:15:00,
2013-06-21 00:21:00,80.8,51.4,29.79,ESE,103,0.0,0.0,36,0.00,,,0.00,Wunderground v.1.15,2013-06-21 06:21:00,
2013-06-21 00:27:00,80.5,51.8,29.79,ESE,114,0.0,2.0,37,0.00,,,0.00,Wunderground v.1.15,2013-06-21 06:27:00,
2013-06-21 00:33:00,80.2,52.3,29.80,ESE,105,1.0,4.0,38,0.00,,,0.00,Wunderground v.1.15,2013-06-21 06:33:00,
2013-06-21 00:39:00,80.3,52.4,29.80,ESE,112,2.0,5.0,38,0.00,,,0.00,Wunderground v.1.15,2013-06-21 06:39:00,
2013-06-21 00:44:00,80.3,52.4,29.80,East,88,2.0,6.0,38,0.00,,,0.00,Wunderground v.1.15,2013-06-21 06:44:00,
2013-06-21 00:50:00,80.3,52.4,29.80,SSE,150,2.0,4.0,38,0.00,,,0.00,Wunderground v.1.15,2013-06-21 06:50:00,
2013-06-21 00:56:00,80.2,52.3,29.80,ESE,105,1.0,5.0,38,0.00,,,0.00,Wunderground v.1.15,2013-06-21 06:56:00,
2013-06-21 01:02:00,80.1,52.2,29.80,ESE,114,1.0,2.0,38,0.00,,,0.00,Wunderground v.1.15,2013-06-21 07:02:00,
2013-06-21 01:08:00,79.9,52.7,29.80,ESE,105,2.0,6.0,39,0.00,,,0.00,Wunderground v.1.15,2013-06-21 07:08:00,
2013-06-21 01:13:00,79.8,52.6,29.80,ESE,111,2.0,4.0,39,0.00,,,0.00,Wunderground v.1.15,2013-06-21 07:13:00,
2013-06-21 01:19:00,79.7,52.5,29.80,ESE,120,2.0,7.0,39,0.00,,,0.00,Wunderground v.1.15,2013-06-21 07:19:00,
2013-06-21 01:25:00,79.7,53.2,29.80,SE,127,2.0,5.0,40,0.00,,,0.00,Wunderground v.1.15,2013-06-21 07:25:00,
2013-06-21 01:31:00,79.6,53.1,29.80,SE,130,3.0,3.0,40,0.00,,,0.00,Wunderground v.1.15,2013-06-21 07:31:00,
2013-06-21 01:36:00,79.5,53.1,29.79,ENE,66,3.0,6.0,40,0.00,,,0.00,Wunderground v.1.15,2013-06-21 07:36:00,
2013-06-21 01:42:00,79.3,52.9,29.79,SE,133,2.0,3.0,40,0.00,,,0.00,Wunderground v.1.15,2013-06-21 07:42:00,
2013-06-21 01:48:00,79.1,53.4,29.79,East,93,2.0,9.0,41,0.00,,,0.00,Wunderground v.1.15,2013-06-21 07:48:00,
2013-06-21 01:54:00,78.9,53.2,29.79,ESE,121,3.0,7.0,41,0.00,,,0.00,Wunderground v.1.15,2013-06-21 07:54:00,
2013-06-21 02:00:00,78.7,53.7,29.79,ESE,109,3.0,3.0,42,0.00,,,0.00,Wunderground v.1.15,2013-06-21 08:00:00,
2013-06-21 02:05:00,78.6,53.6,29.79,ENE,73,2.0,5.0,42,0.00,,,0.00,Wunderground v.1.15,2013-06-21 08:05:00,
2013-06-21 02:11:00,78.5,53.5,29.79,ESE,115,2.0,6.0,42,0.00,,,0.00,Wunderground v.1.15,2013-06-21 08:11:00,
2013-06-21 02:17:00,78.3,53.3,29.79,ESE,110,2.0,6.0,42,0.00,,,0.00,Wunderground v.1.15,2013-06-21 08:17:00,
2013-06-21 02:23:00,78.1,53.1,29.79,ESE,123,2.0,6.0,42,0.00,,,0.00,Wunderground v.1.15,2013-06-21 08:23:00,
2013-06-21 02:28:00,77.9,53.6,29.79,ESE,109,2.0,6.0,43,0.00,,,0.00,Wunderground v.1.15,2013-06-21 08:28:00,
2013-06-21 02:34:00,77.7,53.4,29.79,SE,129,2.0,6.0,43,0.00,,,0.00,Wunderground v.1.15,2013-06-21 08:34:00,
2013-06-21 02:40:00,77.5,53.2,29.79,SE,125,1.0,1.0,43,0.00,,,0.00,Wunderground v.1.15,2013-06-21 08:40:00,
2013-06-21 02:46:00,77.3,53.7,29.79,East,100,1.0,5.0,44,0.00,,,0.00,Wunderground v.1.15,2013-06-21 08:46:00,
2013-06-21 02:51:00,77.3,53.7,29.79,SE,125,2.0,2.0,44,0.00,,,0.00,Wunderground v.1.15,2013-06-21 08:51:00,
2013-06-21 02:57:00,77.1,53.5,29.79,ESE,122,2.0,5.0,44,0.00,,,0.00,Wunderground v.1.15,2013-06-21 08:57:00,
2013-06-21 03:03:00,77.0,54.0,29.79,SE,129,2.0,3.0,45,0.00,,,0.00,Wunderground v.1.15,2013-06-21 09:03:00,
2013-06-21 03:09:00,76.9,53.9,29.79,East,100,1.0,3.0,45,0.00,,,0.00,Wunderground v.1.15,2013-06-21 09:09:00,
2013-06-21 03:14:00,76.9,53.9,29.79,ESE,113,0.0,2.0,45,0.00,,,0.00,Wunderground v.1.15,2013-06-21 09:14:00,
2013-06-21 03:20:00,76.8,53.8,29.79,ENE,76,0.0,0.0,45,0.00,,,0.00,Wunderground v.1.15,2013-06-21 09:20:00,
2013-06-21 03:26:00,76.8,53.8,29.79,East,80,1.0,3.0,45,0.00,,,0.00,Wunderground v.1.15,2013-06-21 09:26:00,
2013-06-21 03:32:00,76.8,53.8,29.79,East,91,1.0,5.0,45,0.00,,,0.00,Wunderground v.1.15,2013-06-21 09:32:00,
2013-06-21 03:38:00,76.6,53.7,29.79,ESE,115,1.0,5.0,45,0.00,,,0.00,Wunderground v.1.15,2013-06-21 09:38:00,
2013-06-21 03:43:00,76.5,54.2,29.79,East,94,0.0,1.0,46,0.00,,,0.00,Wunderground v.1.15,2013-06-21 09:43:00,
2013-06-21 03:49:00,76.3,54.0,29.79,ESE,107,0.0,2.0,46,0.00,,,0.00,Wunderground v.1.15,2013-06-21 09:49:00,
2013-06-21 03:55:00,76.1,53.8,29.79,East,100,0.0,1.0,46,0.00,,,0.00,Wunderground v.1.15,2013-06-21 09:55:00,
2013-06-21 04:01:00,76.0,53.7,29.78,East,98,0.0,0.0,46,0.00,,,0.00,Wunderground v.1.15,2013-06-21 10:01:00,
2013-06-21 04:06:00,76.0,54.3,29.78,ESE,105,0.0,0.0,47,0.00,,,0.00,Wunderground v.1.15,2013-06-21 10:06:00,
2013-06-21 04:12:00,75.9,54.2,29.78,ESE,107,0.0,0.0,47,0.00,,,0.00,Wunderground v.1.15,2013-06-21 10:12:00,
2013-06-21 04:18:00,75.7,54.0,29.78,ESE,120,1.0,5.0,47,0.00,,,0.00,Wunderground v.1.15,2013-06-21 10:18:00,
2013-06-21 04:24:00,75.6,53.9,29.78,SE,133,1.0,2.0,47,0.00,,,0.00,Wunderground v.1.15,2013-06-21 10:24:00,
2013-06-21 04:29:00,75.4,53.8,29.79,ESE,118,1.0,2.0,47,0.00,,,0.00,Wunderground v.1.15,2013-06-21 10:29:00,
2013-06-21 04:35:00,75.3,53.7,29.78,ESE,118,0.0,0.0,47,0.00,,,0.00,Wunderground v.1.15,2013-06-21 10:35:00,
2013-06-21 04:41:00,75.1,54.1,29.78,ESE,111,0.0,0.0,48,0.00,,,0.00,Wunderground v.1.15,2013-06-21 10:41:00,
2013-06-21 04:47:00,75.1,54.1,29.78,East,98,0.0,0.0,48,0.00,,,0.00,Wunderground v.1.15,2013-06-21 10:47:00,
2013-06-21 04:53:00,75.0,54.0,29.78,East,98,0.0,0.0,48,0.00,,,0.00,Wunderground v.1.15,2013-06-21 10:53:00,
2013-06-21 04:59:00,74.7,54.3,29.78,East,98,0.0,0.0,49,0.00,,,0.00,Wunderground v.1.15,2013-06-21 10:59:00,
2013-06-21 05:04:00,73.9,54.6,29.78,East,98,0.0,0.0,51,0.00,,,0.00,Wunderground v.1.15,2013-06-21 11:04:00,
2013-06-21 05:10:00,73.0,54.3,29.78,East,98,0.0,0.0,52,0.00,,,0.00,Wunderground v.1.15,2013-06-21 11:10:00,
2013-06-21 05:16:00,72.2,54.6,29.78,East,98,0.0,0.0,54,0.00,,,0.00,Wunderground v.1.15,2013-06-21 11:16:00,
2013-06-21 05:22:00,71.3,54.8,29.79,East,98,0.0,0.0,56,0.00,,,0.00,Wunderground v.1.15,2013-06-21 11:22:00,
2013-06-21 05:27:00,70.7,54.7,29.79,East,98,0.0,0.0,57,0.00,,,0.00,Wunderground v.1.15,2013-06-21 11:27:00,
2013-06-21 05:32:00,70.1,55.1,29.79,East,98,0.0,0.0,59,0.00,,,0.00,Wunderground v.1.15,2013-06-21 11:32:00,
2013-06-21 05:38:00,69.7,54.7,29.79,East,98,0.0,0.0,59,0.00,,,0.00,Wunderground v.1.15,2013-06-21 11:38:00,
2013-06-21 05:44:00,69.4,54.9,29.79,East,98,0.0,0.0,60,0.00,,,0.00,Wunderground v.1.15,2013-06-21 11:44:00,
2013-06-21 05:50:00,69.1,54.6,29.79,East,98,0.0,0.0,60,0.00,,,0.00,Wunderground v.1.15,2013-06-21 11:50:00,
2013-06-21 05:55:00,68.8,54.8,29.79,East,98,0.0,0.0,61,0.00,,,0.00,Wunderground v.1.15,2013-06-21 11:55:00,
2013-06-21 06:01:00,68.4,54.9,29.79,East,98,0.0,0.0,62,0.00,,,0.00,Wunderground v.1.15,2013-06-21 12:01:00,
2013-06-21 06:07:00,67.9,54.8,29.79,East,98,0.0,0.0,63,0.00,,,0.00,Wunderground v.1.15,2013-06-21 12:07:00,
2013-06-21 06:13:00,67.4,55.2,29.80,East,98,0.0,0.0,65,0.00,,,0.00,Wunderground v.1.15,2013-06-21 12:13:00,
2013-06-21 06:18:00,67.0,55.3,29.80,East,98,0.0,0.0,66,0.00,,,0.00,Wunderground v.1.15,2013-06-21 12:18:00,
2013-06-21 06:24:00,66.7,55.0,29.81,East,98,0.0,0.0,66,0.00,,,0.00,Wunderground v.1.15,2013-06-21 12:24:00,
2013-06-21 06:30:00,66.5,55.6,29.81,East,98,0.0,0.0,68,0.00,,,0.00,Wunderground v.1.15,2013-06-21 12:30:00,
2013-06-21 06:36:00,66.6,55.7,29.80,East,98,0.0,0.0,68,0.00,,,0.00,Wunderground v.1.15,2013-06-21 12:36:00,
2013-06-21 06:42:00,67.0,56.5,29.80,East,98,0.0,0.0,69,0.00,,,0.00,Wunderground v.1.15,2013-06-21 12:42:00,
2013-06-21 06:48:00,67.4,55.6,29.80,East,98,0.0,0.0,66,0.00,,,0.00,Wunderground v.1.15,2013-06-21 12:48:00,
2013-06-21 06:53:00,67.8,56.0,29.81,East,98,0.0,0.0,66,0.00,,,0.00,Wunderground v.1.15,2013-06-21 12:53:00,
2013-06-21 06:59:00,68.4,56.2,29.81,East,98,0.0,0.0,65,0.00,,,0.00,Wunderground v.1.15,2013-06-21 12:59:00,
2013-06-21 07:05:00,69.2,56.5,29.82,SSW,205,0.0,0.0,64,0.00,,,0.00,Wunderground v.1.15,2013-06-21 13:05:00,
2013-06-21 07:10:00,69.8,57.5,29.82,SSW,209,0.0,0.0,65,0.00,,,0.00,Wunderground v.1.15,2013-06-21 13:10:00,
2013-06-21 07:16:00,70.0,57.7,29.82,SSW,209,0.0,0.0,65,0.00,,,0.00,Wunderground v.1.15,2013-06-21 13:16:00,
2013-06-21 07:22:00,70.3,58.0,29.82,NW,311,0.0,0.0,65,0.00,,,0.00,Wunderground v.1.15,2013-06-21 13:22:00,
2013-06-21 07:28:00,71.1,58.7,29.82,NW,311,0.0,0.0,65,0.00,,,0.00,Wunderground v.1.15,2013-06-21 13:28:00,
2013-06-21 07:34:00,72.2,59.3,29.82,NW,311,0.0,0.0,64,0.00,,,0.00,Wunderground v.1.15,2013-06-21 13:34:00,
2013-06-21 07:39:00,72.6,58.8,29.83,NW,311,0.0,0.0,62,0.00,,,0.00,Wunderground v.1.15,2013-06-21 13:39:00,
2013-06-21 07:45:00,72.9,59.1,29.83,NW,311,0.0,0.0,62,0.00,,,0.00,Wunderground v.1.15,2013-06-21 13:45:00,
2013-06-21 07:51:00,72.9,59.6,29.83,NW,311,0.0,0.0,63,0.00,,,0.00,Wunderground v.1.15,2013-06-21 13:51:00,
2013-06-21 07:57:00,72.9,58.7,29.83,NW,311,0.0,0.0,61,0.00,,,0.00,Wunderground v.1.15,2013-06-21 13:57:00,
2013-06-21 08:03:00,73.5,59.7,29.83,NW,311,0.0,0.0,62,0.00,,,0.00,Wunderground v.1.15,2013-06-21 14:03:00,
2013-06-21 08:09:00,74.2,59.9,29.83,NW,311,0.0,0.0,61,0.00,,,0.00,Wunderground v.1.15,2013-06-21 14:09:00,
2013-06-21 08:15:00,75.4,60.1,29.83,NW,311,0.0,0.0,59,0.00,,,0.00,Wunderground v.1.15,2013-06-21 14:15:00,
2013-06-21 08:20:00,76.7,59.8,29.83,NW,311,0.0,0.0,56,0.00,,,0.00,Wunderground v.1.15,2013-06-21 14:20:00,
2013-06-21 08:26:00,77.7,60.2,29.83,NW,311,0.0,0.0,55,0.00,,,0.00,Wunderground v.1.15,2013-06-21 14:26:00,
2013-06-21 08:32:00,78.6,59.0,29.82,NW,311,0.0,0.0,51,0.00,,,0.00,Wunderground v.1.15,2013-06-21 14:32:00,
2013-06-21 08:38:00,79.7,58.3,29.83,SE,130,0.0,4.0,48,0.00,,,0.00,Wunderground v.1.15,2013-06-21 14:38:00,
2013-06-21 08:43:00,80.7,55.5,29.83,SE,140,2.0,6.0,42,0.00,,,0.00,Wunderground v.1.15,2013-06-21 14:43:00,
2013-06-21 08:48:00,81.7,55.7,29.83,SE,140,3.0,6.0,41,0.00,,,0.00,Wunderground v.1.15,2013-06-21 14:48:00,
2013-06-21 08:54:00,82.3,54.9,29.82,SE,136,4.0,6.0,39,0.00,,,0.00,Wunderground v.1.15,2013-06-21 14:54:00,
2013-06-21 09:00:00,82.4,55.7,29.83,SE,135,4.0,4.0,40,0.00,,,0.00,Wunderground v.1.15,2013-06-21 15:00:00,
2013-06-21 09:06:00,82.7,56.6,29.83,ESE,107,3.0,4.0,41,0.00,,,0.00,Wunderground v.1.15,2013-06-21 15:06:00,
2013-06-21 09:11:00,83.0,56.9,29.83,SE,132,3.0,3.0,41,0.00,,,0.00,Wunderground v.1.15,2013-06-21 15:11:00,
2013-06-21 09:17:00,83.4,55.1,29.83,ESE,123,4.0,5.0,38,0.00,,,0.00,Wunderground v.1.15,2013-06-21 15:17:00,
2013-06-21 09:23:00,83.7,56.1,29.83,ESE,108,4.0,5.0,39,0.00,,,0.00,Wunderground v.1.15,2013-06-21 15:23:00,
2013-06-21 09:29:00,83.8,54.7,29.83,SSE,158,4.0,6.0,37,0.00,,,0.00,Wunderground v.1.15,2013-06-21 15:29:00,
2013-06-21 09:35:00,84.2,55.1,29.83,South,169,4.0,5.0,37,0.00,,,0.00,Wunderground v.1.15,2013-06-21 15:35:00,
2013-06-21 09:40:00,84.3,54.4,29.83,SE,144,5.0,5.0,36,0.00,,,0.00,Wunderground v.1.15,2013-06-21 15:40:00,
2013-06-21 09:46:00,84.5,55.4,29.83,SE,144,5.0,6.0,37,0.00,,,0.00,Wunderground v.1.15,2013-06-21 15:46:00,
2013-06-21 09:51:00,84.7,54.8,29.82,SE,145,5.0,6.0,36,0.00,,,0.00,Wunderground v.1.15,2013-06-21 15:51:00,
2013-06-21 09:57:00,84.8,54.9,29.83,SSE,154,5.0,6.0,36,0.00,,,0.00,Wunderground v.1.15,2013-06-21 15:57:00,
2013-06-21 10:03:00,85.2,55.2,29.83,SSW,193,4.0,6.0,36,0.00,,,0.00,Wunderground v.1.15,2013-06-21 16:03:00,
2013-06-21 10:08:00,85.4,54.6,29.83,SSE,151,5.0,9.0,35,0.00,,,0.00,Wunderground v.1.15,2013-06-21 16:08:00,
2013-06-21 10:13:00,85.7,54.1,29.83,SE,141,5.0,7.0,34,0.00,,,0.00,Wunderground v.1.15,2013-06-21 16:13:00,
2013-06-21 10:19:00,85.9,54.3,29.83,SSE,163,4.0,7.0,34,0.00,,,0.00,Wunderground v.1.15,2013-06-21 16:19:00,
2013-06-21 10:24:00,86.1,54.5,29.83,SSE,148,4.0,7.0,34,0.00,,,0.00,Wunderground v.1.15,2013-06-21 16:24:00,
2013-06-21 10:30:00,86.7,54.2,29.83,South,190,4.0,4.0,33,0.00,,,0.00,Wunderground v.1.15,2013-06-21 16:30:00,
2013-06-21 10:36:00,87.3,53.0,29.83,SSE,162,3.0,4.0,31,0.00,,,0.00,Wunderground v.1.15,2013-06-21 16:36:00,
2013-06-21 10:42:00,87.8,53.4,29.83,SE,139,2.0,2.0,31,0.00,,,0.00,Wunderground v.1.15,2013-06-21 16:42:00,
2013-06-21 10:47:00,88.0,53.6,29.83,SE,146,2.0,5.0,31,0.00,,,0.00,Wunderground v.1.15,2013-06-21 16:47:00,
2013-06-21 10:53:00,88.4,53.9,29.83,SE,145,2.0,4.0,31,0.00,,,0.00,Wunderground v.1.15,2013-06-21 16:53:00,
2013-06-21 10:58:00,88.5,54.0,29.83,SE,126,2.0,5.0,31,0.00,,,0.00,Wunderground v.1.15,2013-06-21 16:58:00,
2013-06-21 11:03:00,88.6,54.1,29.82,SE,136,1.0,2.0,31,0.00,,,0.00,Wunderground v.1.15,2013-06-21 17:03:00,
2013-06-21 11:08:00,88.6,53.2,29.83,SE,143,2.0,5.0,30,0.00,,,0.00,Wunderground v.1.15,2013-06-21 17:08:00,
2013-06-21 11:13:00,88.8,53.4,29.83,SSE,164,3.0,5.0,30,0.00,,,0.00,Wunderground v.1.15,2013-06-21 17:13:00,
2013-06-21 11:19:00,89.1,54.5,29.83,SE,138,3.0,5.0,31,0.00,,,0.00,Wunderground v.1.15,2013-06-21 17:19:00,
2013-06-21 11:24:00,89.3,53.8,29.83,South,178,3.0,6.0,30,0.00,,,0.00,Wunderground v.1.15,2013-06-21 17:24:00,
2013-06-21 11:29:00,89.5,54.0,29.82,ESE,107,3.0,6.0,30,0.00,,,0.00,Wunderground v.1.15,2013-06-21 17:29:00,
2013-06-21 11:34:00,89.8,52.3,29.82,SSE,156,3.0,9.0,28,0.00,,,0.00,Wunderground v.1.15,2013-06-21 17:34:00,
2013-06-21 11:40:00,90.2,51.7,29.82,SE,142,4.0,4.0,27,0.00,,,0.00,Wunderground v.1.15,2013-06-21 17:40:00,
2013-06-21 11:46:00,90.7,52.1,29.82,SE,145,1.0,4.0,27,0.00,,,0.00,Wunderground v.1.15,2013-06-21 17:46:00,
2013-06-21 11:47:00,90.8,53.2,29.82,SSE,147,2.0,4.0,28,0.00,,,0.00,Wunderground v.1.15,2013-06-21 17:47:00,
2013-06-21 11:48:00,90.8,53.2,29.81,SSE,147,2.0,4.0,28,0.00,,,0.00,Wunderground v.1.15,2013-06-21 17:48:00,
2013-06-21 11:50:00,91.0,53.4,29.82,SE,146,2.0,2.0,28,0.00,,,0.00,Wunderground v.1.15,2013-06-21 17:50:00,
2013-06-21 11:53:00,91.2,54.5,29.81,SE,144,2.0,2.0,29,0.00,,,0.00,Wunderground v.1.15,2013-06-21 17:53:00,
2013-06-21 11:58:00,91.8,53.1,29.81,SE,136,2.0,7.0,27,0.00,,,0.00,Wunderground v.1.15,2013-06-21 17:58:00,
2013-06-21 12:03:00,92.0,54.2,29.81,SE,130,2.0,7.0,28,0.00,,,0.00,Wunderground v.1.15,2013-06-21 18:03:00,
2013-06-21 12:08:00,92.0,52.2,29.81,SSE,161,3.0,7.0,26,0.00,,,0.00,Wunderground v.1.15,2013-06-21 18:08:00,
2013-06-21 12:13:00,92.2,50.2,29.81,SSE,158,3.0,3.0,24,0.00,,,0.00,Wunderground v.1.15,2013-06-21 18:13:00,
2013-06-21 12:19:00,92.8,50.7,29.80,SSE,152,3.0,5.0,24,0.00,,,0.00,Wunderground v.1.15,2013-06-21 18:19:00,
2013-06-21 12:24:00,93.2,53.2,29.80,ESE,120,3.0,5.0,26,0.00,,,0.00,Wunderground v.1.15,2013-06-21 18:24:00,
2013-06-21 12:25:00,93.2,53.2,29.80,SE,146,3.0,5.0,26,0.00,,,0.00,Wunderground v.1.15,2013-06-21 18:25:00,
2013-06-21 12:26:00,93.3,53.3,29.80,SE,136,2.0,7.0,26,0.00,,,0.00,Wunderground v.1.15,2013-06-21 18:26:00,
2013-06-21 12:27:00,93.4,51.2,29.80,SE,125,2.0,7.0,24,0.00,,,0.00,Wunderground v.1.15,2013-06-21 18:27:00,
2013-06-21 12:30:00,93.6,50.2,29.80,East,99,2.0,2.0,23,0.00,,,0.00,Wunderground v.1.15,2013-06-21 18:30:00,
2013-06-21 12:35:00,93.7,52.6,29.80,East,95,1.0,3.0,25,0.00,,,0.00,Wunderground v.1.15,2013-06-21 18:35:00,
2013-06-21 12:41:00,93.3,52.2,29.79,East,98,2.0,3.0,25,0.00,,,0.00,Wunderground v.1.15,2013-06-21 18:41:00,
2013-06-21 12:46:00,93.4,52.3,29.78,ESE,123,2.0,5.0,25,0.00,,,0.00,Wunderground v.1.15,2013-06-21 18:46:00,
2013-06-21 12:47:00,93.4,51.2,29.78,ENE,78,1.0,5.0,24,0.00,,,0.00,Wunderground v.1.15,2013-06-21 18:47:00,
2013-06-21 12:50:00,93.7,51.5,29.78,NE,53,2.0,4.0,24,0.00,,,0.00,Wunderground v.1.15,2013-06-21 18:50:00,
2013-06-21 12:51:00,93.7,51.5,29.78,ENE,69,2.0,4.0,24,0.00,,,0.00,Wunderground v.1.15,2013-06-21 18:51:00,
2013-06-21 12:57:00,94.1,51.8,29.78,ENE,61,2.0,6.0,24,0.00,,,0.00,Wunderground v.1.15,2013-06-21 18:57:00,
2013-06-21 13:01:00,94.4,52.0,29.78,ENE,58,1.0,2.0,24,0.00,,,0.00,Wunderground v.1.15,2013-06-21 19:01:00,
2013-06-21 13:07:00,95.0,51.4,29.77,NE,38,1.0,3.0,23,0.00,,,0.00,Wunderground v.1.15,2013-06-21 19:07:00,
2013-06-21 13:12:00,95.6,50.7,29.77,East,90,3.0,5.0,22,0.00,,,0.00,Wunderground v.1.15,2013-06-21 19:12:00,
2013-06-21 13:17:00,95.3,51.6,29.77,SE,131,4.0,11.0,23,0.00,,,0.00,Wunderground v.1.15,2013-06-21 19:17:00,
2013-06-21 13:23:00,95.8,48.3,29.76,SSE,157,4.0,10.0,20,0.00,,,0.00,Wunderground v.1.15,2013-06-21 19:23:00,
2013-06-21 13:29:00,96.1,51.1,29.76,SE,131,4.0,11.0,22,0.00,,,0.00,Wunderground v.1.15,2013-06-21 19:29:00,
2013-06-21 13:35:00,96.1,45.7,29.75,ESE,104,3.0,8.0,18,0.00,,,0.00,Wunderground v.1.15,2013-06-21 19:35:00,
2013-06-21 13:37:00,96.1,48.5,29.75,SSE,167,3.0,8.0,20,0.00,,,0.00,Wunderground v.1.15,2013-06-21 19:37:00,
2013-06-21 13:42:00,96.4,47.4,29.75,SSE,150,3.0,6.0,19,0.00,,,0.00,Wunderground v.1.15,2013-06-21 19:42:00,
2013-06-21 13:43:00,96.5,47.5,29.75,SSE,149,3.0,6.0,19,0.00,,,0.00,Wunderground v.1.15,2013-06-21 19:43:00,
2013-06-21 13:49:00,97.3,45.2,29.75,SW,229,6.0,11.0,17,0.00,,,0.00,Wunderground v.1.15,2013-06-21 19:49:00,
2013-06-21 13:55:00,97.7,45.5,29.75,WSW,248,6.0,10.0,17,0.00,,,0.00,Wunderground v.1.15,2013-06-21 19:55:00,
2013-06-21 14:00:00,97.6,45.4,29.74,SSW,212,3.0,3.0,17,0.00,,,0.00,Wunderground v.1.15,2013-06-21 20:00:00,
2013-06-21 14:06:00,97.7,45.5,29.74,WSW,248,3.0,9.0,17,0.00,,,0.00,Wunderground v.1.15,2013-06-21 20:06:00,
2013-06-21 14:11:00,97.1,45.0,29.74,SE,142,4.0,8.0,17,0.00,,,0.00,Wunderground v.1.15,2013-06-21 20:11:00,
2013-06-21 14:17:00,97.4,43.7,29.74,SSW,192,3.0,8.0,16,0.00,,,0.00,Wunderground v.1.15,2013-06-21 20:17:00,
2013-06-21 14:18:00,97.5,43.8,29.74,South,190,2.0,8.0,16,0.00,,,0.00,Wunderground v.1.15,2013-06-21 20:18:00,
2013-06-21 14:23:00,98.4,44.5,29.74,West,280,1.0,2.0,16,0.00,,,0.00,Wunderground v.1.15,2013-06-21 20:23:00,
2013-06-21 14:29:00,98.6,47.8,29.73,NW,317,0.0,2.0,18,0.00,,,0.00,Wunderground v.1.15,2013-06-21 20:29:00,
2013-06-21 14:34:00,98.8,44.8,29.73,West,267,0.0,4.0,16,0.00,,,0.00,Wunderground v.1.15,2013-06-21 20:34:00,
2013-06-21 14:39:00,99.0,45.0,29.73,NW,321,1.0,4.0,16,0.00,,,0.00,Wunderground v.1.15,2013-06-21 20:39:00,
2013-06-21 14:45:00,99.3,43.5,29.72,West,259,2.0,14.0,15,0.00,,,0.00,Wunderground v.1.15,2013-06-21 20:45:00,
2013-06-21 14:51:00,98.8,43.1,29.72,South,177,6.0,6.0,15,0.00,,,0.00,Wunderground v.1.15,2013-06-21 20:51:00,
2013-06-21 14:56:00,98.6,41.2,29.72,SSW,211,7.0,11.0,14,0.00,,,0.00,Wunderground v.1.15,2013-06-21 20:56:00,
2013-06-21 15:02:00,98.7,41.2,29.72,SSW,196,6.0,9.0,14,0.00,,,0.00,Wunderground v.1.15,2013-06-21 21:02:00,
2013-06-21 15:07:00,98.6,44.6,29.72,West,269,5.0,10.0,16,0.00,,,0.00,Wunderground v.1.15,2013-06-21 21:07:00,
2013-06-21 15:11:00,98.5,42.9,29.72,NW,308,7.0,12.0,15,0.00,,,0.00,Wunderground v.1.15,2013-06-21 21:11:00,
2013-06-21 15:16:00,98.7,43.0,29.71,West,264,7.0,12.0,15,0.00,,,0.00,Wunderground v.1.15,2013-06-21 21:16:00,
2013-06-21 15:22:00,98.8,44.8,29.71,West,265,4.0,9.0,16,0.00,,,0.00,Wunderground v.1.15,2013-06-21 21:22:00,
2013-06-21 15:28:00,99.0,45.0,29.71,SSE,165,6.0,15.0,16,0.00,,,0.00,Wunderground v.1.15,2013-06-21 21:28:00,
2013-06-21 15:34:00,98.5,46.2,29.71,South,170,8.0,11.0,17,0.00,,,0.00,Wunderground v.1.15,2013-06-21 21:34:00,
2013-06-21 15:40:00,98.5,46.2,29.70,SW,217,5.0,5.0,17,0.00,,,0.00,Wunderground v.1.15,2013-06-21 21:40:00,
2013-06-21 15:45:00,98.1,44.2,29.70,South,182,2.0,5.0,16,0.00,,,0.00,Wunderground v.1.15,2013-06-21 21:45:00,
2013-06-21 15:51:00,97.8,47.1,29.70,SSW,192,3.0,7.0,18,0.00,,,0.00,Wunderground v.1.15,2013-06-21 21:51:00,
2013-06-21 15:56:00,97.3,48.2,29.70,South,190,7.0,10.0,19,0.00,,,0.00,Wunderground v.1.15,2013-06-21 21:56:00,
2013-06-21 16:02:00,97.3,48.2,29.70,SSW,209,8.0,10.0,19,0.00,,,0.00,Wunderground v.1.15,2013-06-21 22:02:00,
2013-06-21 16:08:00,98.1,48.8,29.70,WSW,240,6.0,11.0,19,0.00,,,0.00,Wunderground v.1.15,2013-06-21 22:08:00,
2013-06-21 16:13:00,98.6,46.2,29.69,South,188,7.0,8.0,17,0.00,,,0.00,Wunderground v.1.15,2013-06-21 22:13:00,
2013-06-21 16:18:00,99.0,49.5,29.69,South,184,5.0,8.0,19,0.00,,,0.00,Wunderground v.1.15,2013-06-21 22:18:00,
2013-06-21 16:24:00,99.3,48.3,29.69,South,180,5.0,7.0,18,0.00,,,0.00,Wunderground v.1.15,2013-06-21 22:24:00,
2013-06-21 16:30:00,98.9,48.0,29.68,SSW,194,6.0,7.0,18,0.00,,,0.00,Wunderground v.1.15,2013-06-21 22:30:00,
2013-06-21 16:36:00,98.9,48.0,29.68,SSW,206,5.0,9.0,18,0.00,,,0.00,Wunderground v.1.15,2013-06-21 22:36:00,
2013-06-21 16:42:00,99.3,46.8,29.68,South,186,5.0,7.0,17,0.00,,,0.00,Wunderground v.1.15,2013-06-21 22:42:00,
2013-06-21 16:48:00,99.5,48.5,29.67,SW,229,4.0,7.0,18,0.00,,,0.00,Wunderground v.1.15,2013-06-21 22:48:00,
2013-06-21 16:54:00,99.3,45.2,29.67,ESE,107,2.0,4.0,16,0.00,,,0.00,Wunderground v.1.15,2013-06-21 22:54:00,
2013-06-21 16:59:00,99.6,47.0,29.67,ESE,123,2.0,4.0,17,0.00,,,0.00,Wunderground v.1.15,2013-06-21 22:59:00,
2013-06-21 17:05:00,100.1,47.4,29.67,SW,226,1.0,6.0,17,0.00,,,0.00,Wunderground v.1.15,2013-06-21 23:05:00,
2013-06-21 17:11:00,100.0,42.3,29.67,West,263,1.0,1.0,14,0.00,,,0.00,Wunderground v.1.15,2013-06-21 23:11:00,
2013-06-21 17:17:00,100.1,44.1,29.67,West,263,1.0,2.0,15,0.00,,,0.00,Wunderground v.1.15,2013-06-21 23:17:00,
2013-06-21 17:23:00,100.0,44.1,29.66,West,265,0.0,1.0,15,0.00,,,0.00,Wunderground v.1.15,2013-06-21 23:23:00,
2013-06-21 17:28:00,99.6,43.7,29.66,West,269,1.0,6.0,15,0.00,,,0.00,Wunderground v.1.15,2013-06-21 23:28:00,
2013-06-21 17:34:00,99.0,45.0,29.66,SSW,196,3.0,5.0,16,0.00,,,0.00,Wunderground v.1.15,2013-06-21 23:34:00,
2013-06-21 17:40:00,98.4,46.1,29.66,South,188,3.0,5.0,17,0.00,,,0.00,Wunderground v.1.15,2013-06-21 23:40:00,
2013-06-21 17:46:00,97.8,45.6,29.65,SW,221,2.0,5.0,17,0.00,,,0.00,Wunderground v.1.15,2013-06-21 23:46:00,
2013-06-21 17:52:00,97.6,45.4,29.65,SSW,213,0.0,1.0,17,0.00,,,0.00,Wunderground v.1.15,2013-06-21 23:52:00,
2013-06-21 17:57:00,97.3,45.2,29.65,SSW,194,1.0,5.0,17,0.00,,,0.00,Wunderground v.1.15,2013-06-21 23:57:00,
2013-06-21 18:03:00,97.0,45.0,29.65,SW,215,3.0,8.0,17,0.00,,,0.00,Wunderground v.1.15,2013-06-22 00:03:00,
2013-06-21 18:09:00,97.1,48.0,29.65,SSE,163,5.0,10.0,19,0.00,,,0.00,Wunderground v.1.15,2013-06-22 00:09:00,
2013-06-21 18:15:00,96.5,48.9,29.65,SE,140,5.0,7.0,20,0.00,,,0.00,Wunderground v.1.15,2013-06-22 00:15:00,
2013-06-21 18:20:00,95.8,49.6,29.65,SSE,149,5.0,9.0,21,0.00,,,0.00,Wunderground v.1.15,2013-06-22 00:20:00,
2013-06-21 18:26:00,95.4,49.3,29.65,SSE,155,7.0,11.0,21,0.00,,,0.00,Wunderground v.1.15,2013-06-22 00:26:00,
2013-06-21 18:32:00,94.9,50.1,29.65,SSE,154,8.0,9.0,22,0.00,,,0.00,Wunderground v.1.15,2013-06-22 00:32:00,
2013-06-21 18:38:00,94.9,50.1,29.65,SE,130,6.0,9.0,22,0.00,,,0.00,Wunderground v.1.15,2013-06-22 00:38:00,
2013-06-21 18:44:00,95.1,49.0,29.65,SSE,164,7.0,9.0,21,0.00,,,0.00,Wunderground v.1.15,2013-06-22 00:44:00,
2013-06-21 18:50:00,95.1,50.3,29.65,SSE,165,6.0,6.0,22,0.00,,,0.00,Wunderground v.1.15,2013-06-22 00:50:00,
2013-06-21 18:55:00,95.1,51.5,29.66,SSE,153,3.0,6.0,23,0.00,,,0.00,Wunderground v.1.15,2013-06-22 00:55:00,
2013-06-21 19:00:00,95.0,51.4,29.66,South,169,1.0,1.0,23,0.00,,,0.00,Wunderground v.1.15,2013-06-22 01:00:00,
2013-06-21 19:06:00,94.8,50.0,29.66,SSE,157,1.0,3.0,22,0.00,,,0.00,Wunderground v.1.15,2013-06-22 01:06:00,
2013-06-21 19:12:00,94.6,52.2,29.65,South,181,1.0,1.0,24,0.00,,,0.00,Wunderground v.1.15,2013-06-22 01:12:00,
2013-06-21 19:18:00,94.3,53.1,29.65,South,181,0.0,1.0,25,0.00,,,0.00,Wunderground v.1.15,2013-06-22 01:18:00,
2013-06-21 19:24:00,93.6,52.5,29.66,South,181,0.0,0.0,25,0.00,,,0.00,Wunderground v.1.15,2013-06-22 01:24:00,
2013-06-21 19:30:00,93.3,52.2,29.66,SE,136,0.0,0.0,25,0.00,,,0.00,Wunderground v.1.15,2013-06-22 01:30:00,
2013-06-21 19:36:00,93.0,53.0,29.65,SE,137,0.0,0.0,26,0.00,,,0.00,Wunderground v.1.15,2013-06-22 01:36:00,
2013-06-21 19:42:00,92.6,54.7,29.66,SE,137,0.0,0.0,28,0.00,,,0.00,Wunderground v.1.15,2013-06-22 01:42:00,
2013-06-21 19:47:00,92.2,53.4,29.66,SSE,153,0.0,0.0,27,0.00,,,0.00,Wunderground v.1.15,2013-06-22 01:47:00,
2013-06-21 19:53:00,92.0,51.1,29.66,SSE,162,0.0,0.0,25,0.00,,,0.00,Wunderground v.1.15,2013-06-22 01:53:00,
2013-06-21 19:59:00,92.0,51.1,29.66,SSE,162,0.0,0.0,25,0.00,,,0.00,Wunderground v.1.15,2013-06-22 01:59:00,
2013-06-21 20:04:00,92.1,51.2,29.66,SSE,162,0.0,0.0,25,0.00,,,0.00,Wunderground v.1.15,2013-06-22 02:04:00,
2013-06-21 20:10:00,92.0,52.2,29.66,SSE,162,0.0,0.0,26,0.00,,,0.00,Wunderground v.1.15,2013-06-22 02:10:00,
2013-06-21 20:15:00,91.6,51.9,29.66,SSE,162,0.0,0.0,26,0.00,,,0.00,Wunderground v.1.15,2013-06-22 02:15:00,
2013-06-21 20:21:00,91.1,51.4,29.66,SSE,162,0.0,0.0,26,0.00,,,0.00,Wunderground v.1.15,2013-06-22 02:21:00,
2013-06-21 20:27:00,90.7,52.1,29.67,SSE,162,0.0,0.0,27,0.00,,,0.00,Wunderground v.1.15,2013-06-22 02:27:00,
2013-06-21 20:33:00,90.2,51.7,29.67,SSE,162,0.0,0.0,27,0.00,,,0.00,Wunderground v.1.15,2013-06-22 02:33:00,
2013-06-21 20:38:00,89.8,49.3,29.67,SSE,162,0.0,0.0,25,0.00,,,0.00,Wunderground v.1.15,2013-06-22 02:38:00,
2013-06-21 20:44:00,90.6,52.0,29.67,SSW,196,0.0,0.0,27,0.00,,,0.00,Wunderground v.1.15,2013-06-22 02:44:00,
2013-06-21 20:50:00,90.2,51.7,29.67,SSW,196,0.0,0.0,27,0.00,,,0.00,Wunderground v.1.15,2013-06-22 02:50:00,
2013-06-21 20:55:00,89.7,50.3,29.67,SSW,196,0.0,0.0,26,0.00,,,0.00,Wunderground v.1.15,2013-06-22 02:55:00,
2013-06-21 21:01:00,89.1,50.8,29.67,SSW,196,0.0,0.0,27,0.00,,,0.00,Wunderground v.1.15,2013-06-22 03:01:00,
2013-06-21 21:07:00,88.3,51.1,29.68,SSW,196,0.0,0.0,28,0.00,,,0.00,Wunderground v.1.15,2013-06-22 03:07:00,
2013-06-21 21:13:00,87.5,50.4,29.68,SSW,196,0.0,0.0,28,0.00,,,0.00,Wunderground v.1.15,2013-06-22 03:13:00,
2013-06-21 21:19:00,86.6,50.6,29.68,SSW,196,0.0,0.0,29,0.00,,,0.00,Wunderground v.1.15,2013-06-22 03:19:00,
2013-06-21 21:25:00,85.9,50.9,29.68,SSW,196,0.0,0.0,30,0.00,,,0.00,Wunderground v.1.15,2013-06-22 03:25:00,
2013-06-21 21:30:00,85.1,50.2,29.68,SSW,196,0.0,0.0,30,0.00,,,0.00,Wunderground v.1.15,2013-06-22 03:30:00,
2013-06-21 21:36:00,84.2,49.4,29.69,SSW,196,0.0,0.0,30,0.00,,,0.00,Wunderground v.1.15,2013-06-22 03:36:00,
2013-06-21 21:42:00,83.4,48.7,29.69,SSW,196,0.0,0.0,30,0.00,,,0.00,Wunderground v.1.15,2013-06-22 03:42:00,
2013-06-21 21:48:00,82.7,45.3,29.69,SSW,196,0.0,0.0,27,0.00,,,0.00,Wunderground v.1.15,2013-06-22 03:48:00,
2013-06-21 21:54:00,81.7,45.4,29.69,SSW,196,0.0,0.0,28,0.00,,,0.00,Wunderground v.1.15,2013-06-22 03:54:00,
2013-06-21 21:59:00,80.9,47.4,29.69,SSW,196,0.0,0.0,31,0.00,,,0.00,Wunderground v.1.15,2013-06-22 03:59:00,
2013-06-21 22:01:00,80.7,47.2,29.70,SSW,196,0.0,0.0,31,0.00,,,0.00,Wunderground v.1.15,2013-06-22 04:01:00,
2013-06-21 22:03:00,80.5,47.9,29.70,SSW,196,0.0,0.0,32,0.00,,,0.00,Wunderground v.1.15,2013-06-22 04:03:00,
2013-06-21 22:04:00,80.3,48.6,29.70,SSW,196,0.0,0.0,33,0.00,,,0.00,Wunderground v.1.15,2013-06-22 04:04:00,
2013-06-21 22:05:00,80.2,47.7,29.70,SSW,196,0.0,0.0,32,0.00,,,0.00,Wunderground v.1.15,2013-06-22 04:05:00,
2013-06-21 22:06:00,80.1,47.6,29.70,SSW,196,0.0,0.0,32,0.00,,,0.00,Wunderground v.1.15,2013-06-22 04:06:00,
2013-06-21 22:11:00,79.7,45.5,29.70,SSW,196,0.0,0.0,30,0.00,,,0.00,Wunderground v.1.15,2013-06-22 04:11:00,
2013-06-21 22:17:00,79.6,38.5,29.70,SSW,196,0.0,0.0,23,0.00,,,0.00,Wunderground v.1.15,2013-06-22 04:17:00,
2013-06-21 22:22:00,80.0,36.5,29.70,SSW,196,0.0,0.0,21,0.00,,,0.00,Wunderground v.1.15,2013-06-22 04:22:00,
2013-06-21 22:27:00,80.7,39.4,29.70,SSW,196,0.0,0.0,23,0.00,,,0.00,Wunderground v.1.15,2013-06-22 04:27:00,
2013-06-21 22:32:00,80.7,44.6,29.71,SSW,196,0.0,0.0,28,0.00,,,0.00,Wunderground v.1.15,2013-06-22 04:32:00,
2013-06-21 22:37:00,80.3,46.0,29.71,SSW,196,0.0,0.0,30,0.00,,,0.00,Wunderground v.1.15,2013-06-22 04:37:00,
2013-06-21 22:42:00,79.9,41.9,29.71,SSW,196,0.0,0.0,26,0.00,,,0.00,Wunderground v.1.15,2013-06-22 04:42:00,
2013-06-21 22:48:00,79.7,40.8,29.71,SSW,196,0.0,0.0,25,0.00,,,0.00,Wunderground v.1.15,2013-06-22 04:48:00,
2013-06-21 22:54:00,79.9,39.9,29.71,SSW,196,0.0,0.0,24,0.00,,,0.00,Wunderground v.1.15,2013-06-22 04:54:00,
2013-06-21 23:00:00,79.8,39.8,29.72,SSW,196,0.0,0.0,24,0.00,,,0.00,Wunderground v.1.15,2013-06-22 05:00:00,
2013-06-21 23:06:00,79.5,39.5,29.72,SSW,196,0.0,0.0,24,0.00,,,0.00,Wunderground v.1.15,2013-06-22 05:06:00,
2013-06-21 23:11:00,79.0,41.2,29.72,SSW,196,0.0,0.0,26,0.00,,,0.00,Wunderground v.1.15,2013-06-22 05:11:00,
2013-06-21 23:17:00,78.4,39.7,29.72,SSW,196,0.0,0.0,25,0.00,,,0.00,Wunderground v.1.15,2013-06-22 05:17:00,
2013-06-21 23:23:00,77.8,40.2,29.72,SSW,196,0.0,0.0,26,0.00,,,0.00,Wunderground v.1.15,2013-06-22 05:23:00,
2013-06-21 23:29:00,77.1,41.5,29.72,SSW,196,0.0,0.0,28,0.00,,,0.00,Wunderground v.1.15,2013-06-22 05:29:00,
2013-06-21 23:34:00,76.6,42.8,29.72,SSW,196,0.0,0.0,30,0.00,,,0.00,Wunderground v.1.15,2013-06-22 05:34:00,
2013-06-21 23:40:00,76.0,42.3,29.72,SSW,196,0.0,0.0,30,0.00,,,0.00,Wunderground v.1.15,2013-06-22 05:40:00,
2013-06-21 23:46:00,75.4,43.5,29.73,SSW,196,0.0,0.0,32,0.00,,,0.00,Wunderground v.1.15,2013-06-22 05:46:00,
2013-06-21 23:52:00,74.8,43.8,29.73,SSW,196,0.0,0.0,33,0.00,,,0.00,Wunderground v.1.15,2013-06-22 05:52:00,
2013-06-21 23:58:00,74.2,44.8,29.73,SSW,196,0.0,0.0,35,0.00,,,0.00,Wunderground v.1.15,2013-06-22 05:58:00,